Simultaneous Nadir Overpasses (SNOs) Predictions

Prediction of SNOs between GOES-15 and METOP-A Satellite Orbit:

Table of predicted SNOs for the next 14.0 days since TLE Epoch: 11/28/2020
Index Date Time (GOES-15) GOES-15 Lat,Lon METOP-A Lat,Lon Distance(km) Time Diff (sec)
1 11/29/2020 04:54:28 -0.25,-127.89 0.03,-126.66 140.43 80
2 11/30/2020 17:10:39 0.25,-127.90 1.00,-131.26 382.31 80
3 12/01/2020 16:52:40 0.25,-127.93 -0.11,-126.28 187.66 80
4 12/03/2020 05:09:01 -0.26,-127.99 -0.87,-130.92 333.00 80
5 12/04/2020 04:51:01 -0.26,-128.01 0.18,-125.93 236.67 80
6 12/05/2020 17:07:13 0.26,-128.01 0.79,-130.54 287.23 80
7 12/06/2020 16:49:12 0.27,-128.03 -0.26,-125.55 282.14 80
8 12/08/2020 05:05:34 -0.27,-128.09 -0.71,-130.20 239.54 80
9 12/09/2020 04:47:33 -0.27,-128.11 0.34,-125.21 329.64 80
10 12/10/2020 17:03:46 0.27,-128.10 0.62,-129.81 195.08 80
11 12/11/2020 16:45:45 0.27,-128.11 -0.43,-124.83 373.70 80
